This is the latest recevied weather packets stored in our database for station/object EA1GHG-11. If no packets are shown the sender has not sent any weather packets the latest 10 day(s).
| Time | Temp. | Humidity | Pressure | Rain* | Wind** | Luminosity | Snow |
|---|---|---|---|---|---|---|---|
| 1787871090 | 14.44° C | 100% | 1021.5 hPa | - | - | - | - |
| 1787869590 | 14.44° C | 100% | 1021.3 hPa | - | - | - | - |
| 1787868090 | 13.89° C | 100% | 1021.5 hPa | - | - | - | - |
| 1787866590 | 13.33° C | 100% | 1021.2 hPa | - | - | - | - |
| 1787865090 | 13.89° C | 100% | 1020.9 hPa | - | - | - | - |
| 1787863590 | 13.33° C | 100% | 1020.8 hPa | - | - | - | - |
| 1787862090 | 13.89° C | 100% | 1020.4 hPa | - | - | - | - |
| 1787860589 | 14.44° C | 100% | 1020 hPa | - | - | - | - |
| 1787859089 | 14.44° C | 100% | 1019.7 hPa | - | - | - | - |
| 1787858491 | 15° C | 100% | 1019.4 hPa | - | - | - | - |
| 1787856991 | 14.44° C | 100% | 1018.9 hPa | - | - | - | - |
| 1787855491 | 15.56° C | 100% | 1018.5 hPa | - | - | - | - |
| 1787853991 | 16.11° C | 100% | 1018.4 hPa | - | - | - | - |
| 1787852492 | 17.22° C | 100% | 1017.9 hPa | - | - | - | - |
| 1787850995 | 16.67° C | 100% | 1017.8 hPa | - | - | - | - |
| 1787849491 | 17.78° C | 100% | 1017.5 hPa | - | - | - | - |
| 1787847990 | 17.22° C | 100% | 1017.3 hPa | - | - | - | - |
| 1787846490 | 16.67° C | 100% | 1017.1 hPa | - | - | - | - |
| 1787844990 | 16.11° C | 100% | 1016.8 hPa | - | - | - | - |
| 1787843489 | 15° C | 100% | 1016.7 hPa | - | - | - | - |
| 1787841989 | 16.11° C | 100% | 1016.1 hPa | - | - | - | - |
| 1787840489 | 15.56° C | 100% | 1015.5 hPa | - | - | - | - |
| 1787838989 | 17.78° C | 100% | 1015.1 hPa | - | - | - | - |
| 1787837489 | 16.67° C | 100% | 1014.9 hPa | - | - | - | - |
| 1787836889 | 16.11° C | 100% | 1014.9 hPa | - | - | - | - |
* Rain since midnight (hover to see other rain measurements)
** Current wind speed in m/s (hover to see current wind gust speed)